Content
SEND FEEDBACK

Daily
Averages
Monthly
Summary
United States of America

ST. JOSEPH, LOUISIANA


Home > North America > United States > Louisiana
Elevation: 8 feet     Latitude: 31 57N     Longitude: 091 14W

WEATHER
 
SELECT A DAY
Number of Records: 460,555;   Date Range: 1/1/95 - 12/19/14
 
SHARE

PRINT THIS DATA

[ ← Previous Day ]
WEATHER ALMANAC - JANUARY 23, 2013
[ Next Day → ]
[ °C ]   °F
Weather ElementAverageHighLow
Temperature56.7 °F69.8 °F (2:35 pm)44.6 °F (12:35 am)
Dewpoint43.5 °F50 °F (9:55 pm)37.4 °F (12:35 am)
Humidity64.5 %93 % (6:15 am)35 % (3:15 pm)
Barometer30.30 in30.37 in (9:35 am)30.25 in (4:35 pm)
Wind Speed6.5 mph13.8 mph (12:35 pm)
Wind Gust16.1 mph (11:35 am)
Weather ElementAverage
Visibility10 mi
Wind DirectionSSW (199 °)

Weather ElementTotal
Precipitation---
Heating Degree Days7.8 (Base 65)
Growing Degree Days7.2 (Base 50)
Averaged from 70 records on January 23, 2013
WEATHER CONDITIONS BREAKOUT
WIND DIRECTION BREAKOUT
WEATHER BY HOUR - JANUARY 23, 2013
[ °C ]   °F
Local TimeTemperatureDewpointHumidityBarometerVisibilityWind DirectionWind SpeedGust SpeedPrecipitationEventsConditions
12:35 AM44.6 °F37.4 °F76 %30.30 in10.0 miSouth (170°)5.8 mphClear
12:55 AM44.6 °F37.4 °F76 %30.30 in10.0 miSouth (170°)5.8 mphClear
1:15 AM44.6 °F39.2 °F81 %30.30 in10.0 miSSE (160°)4.6 mphClear
1:35 AM46.4 °F39.2 °F76 %30.30 in10.0 miSouth (180°)5.8 mphClear
1:55 AM44.6 °F39.2 °F81 %30.30 in10.0 miSouth (190°)5.8 mphClear
2:15 AM46.4 °F39.2 °F76 %30.30 in10.0 miSouth (190°)5.8 mphClear
2:35 AM46.4 °F39.2 °F76 %30.30 in10.0 miSouth (190°)6.9 mphClear
2:55 AM44.6 °F39.2 °F81 %30.30 in10.0 miSouth (190°)6.9 mphClear
3:15 AM46.4 °F39.2 °F76 %30.30 in10.0 miSouth (190°)5.8 mphClear
3:35 AM44.6 °F39.2 °F81 %30.30 in10.0 miSouth (190°)5.8 mphClear
3:55 AM46.4 °F41.0 °F81 %30.30 in10.0 miSouth (190°)4.6 mphClear
4:15 AM46.4 °F41.0 °F81 %30.30 in10.0 miSSW (200°)3.5 mphPartly Cloudy
4:35 AM46.4 °F42.8 °F87 %30.30 in10.0 miSouth (190°)5.8 mphMostly Cloudy
4:55 AM46.4 °F42.8 °F87 %30.31 in10.0 miSouth (190°)3.5 mphOvercast
5:15 AM46.4 °F42.8 °F87 %30.33 in10.0 miSouth (180°)4.6 mphOvercast
5:35 AM46.4 °F42.8 °F87 %30.33 in10.0 miCalmOvercast
5:55 AM46.4 °F42.8 °F87 %30.33 in10.0 miSouth (190°)3.5 mphMostly Cloudy
6:15 AM44.6 °F42.8 °F93 %30.33 in10.0 miSouth (190°)4.6 mphMostly Cloudy
6:35 AM46.4 °F42.8 °F87 %30.33 in10.0 miSouth (190°)4.6 mphMostly Cloudy
6:55 AM46.4 °F42.8 °F87 %30.33 in10.0 miSouth (190°)5.8 mphScattered Clouds
7:15 AM44.6 °F41.0 °F87 %30.34 in10.0 miSouth (190°)3.5 mphClear
7:35 AM46.4 °F42.8 °F87 %30.35 in10.0 miSouth (190°)3.5 mphPartly Cloudy
7:55 AM48.2 °F44.6 °F87 %30.34 in10.0 miSouth (190°)6.9 mphMostly Cloudy
8:15 AM48.2 °F44.6 °F87 %30.35 in10.0 miSouth (190°)5.8 mphOvercast
8:35 AM51.8 °F44.6 °F76 %30.36 in10.0 miSouth (190°)5.8 mphOvercast
8:55 AM51.8 °F46.4 °F82 %30.36 in10.0 miSSW (200°)5.8 mphMostly Cloudy
9:15 AM55.4 °F46.4 °F72 %30.36 in10.0 miSSW (210°)5.8 mphMostly Cloudy
9:35 AM55.4 °F46.4 °F72 %30.37 in10.0 miSSW (210°)8.1 mphScattered Clouds
9:55 AM59.0 °F46.4 °F63 %30.37 in10.0 miSSW (210°)9.2 mphScattered Clouds
10:15 AM60.8 °F44.6 °F55 %30.37 in10.0 miSW (230°)6.9 mphPartly Cloudy
10:35 AM60.8 °F44.6 °F55 %30.37 in10.0 miSW (220°)8.1 mphClear
10:55 AM62.6 °F44.6 °F52 %30.36 in10.0 miSSW (200°)5.8 mphClear
11:15 AM64.4 °F42.8 °F45 %30.36 in10.0 miSW (220°)8.1 mphClear
11:35 AM64.4 °F42.8 °F45 %30.35 in10.0 miWSW (240°)11.5 mph16.1 mphClear
11:55 AM64.4 °F42.8 °F45 %30.34 in10.0 miSW (220°)9.2 mphClear
12:15 PM66.2 °F42.8 °F43 %30.33 in10.0 miSW (220°)8.1 mphClear
12:35 PM66.2 °F42.8 °F43 %30.32 in10.0 miSW (230°)13.8 mphClear
12:55 PM66.2 °F41.0 °F40 %30.31 in10.0 miWSW (240°)9.2 mphClear
1:15 PM68.0 °F42.8 °F40 %30.29 in10.0 miSW (220°)6.9 mphClear
1:35 PM68.0 °F42.8 °F40 %30.29 in10.0 miWSW (240°)11.5 mph16.1 mphClear
1:56 PM68.0 °F42.8 °F40 %30.28 in10.0 miWSW (240°)11.5 mphClear
2:15 PM68.0 °F41.0 °F37 %30.28 in10.0 miWSW (250°)10.4 mphClear
2:35 PM69.8 °F42.8 °F38 %30.27 in10.0 miSW (220°)6.9 mphClear
2:55 PM69.8 °F42.8 °F38 %30.27 in10.0 miSW (220°)9.2 mphClear
3:15 PM69.8 °F41.0 °F35 %30.26 in10.0 miSSW (200°)6.9 mphClear
3:35 PM69.8 °F41.0 °F35 %30.26 in10.0 miSSW (210°)11.5 mphClear
3:55 PM69.8 °F42.8 °F38 %30.26 in10.0 miSW (230°)8.1 mphClear
4:15 PM69.8 °F41.0 °F35 %30.26 in10.0 miSW (220°)10.4 mphClear
4:35 PM68.0 °F41.0 °F37 %30.25 in10.0 miSW (220°)8.1 mphClear
4:55 PM66.2 °F42.8 °F43 %30.25 in10.0 miSSW (200°)9.2 mphClear
5:35 PM64.4 °F42.8 °F45 %30.26 in10.0 miSSW (210°)4.6 mphClear
5:55 PM64.4 °F42.8 °F45 %30.25 in10.0 miSSW (210°)4.6 mphClear
6:15 PM62.6 °F42.8 °F48 %30.26 in10.0 miSSW (200°)4.6 mphClear
6:35 PM60.8 °F42.8 °F52 %30.26 in10.0 miSouth (190°)4.6 mphClear
6:55 PM60.8 °F42.8 °F52 %30.25 in10.0 miSouth (190°)5.8 mphClear
7:15 PM60.8 °F44.6 °F55 %30.26 in10.0 miSouth (190°)5.8 mphClear
7:35 PM60.8 °F46.4 °F59 %30.26 in10.0 miSouth (190°)5.8 mphClear
7:55 PM59.0 °F44.6 °F59 %30.26 in10.0 miSouth (190°)5.8 mphClear
8:15 PM59.0 °F46.4 °F63 %30.26 in10.0 miSouth (190°)5.8 mphClear
8:35 PM59.0 °F46.4 °F63 %30.26 in10.0 miSSW (200°)5.8 mphClear
8:55 PM59.0 °F48.2 °F67 %30.27 in10.0 miSSW (200°)5.8 mphClear
9:16 PM59.0 °F48.2 °F67 %30.27 in10.0 miSSW (200°)5.8 mphClear
9:35 PM59.0 °F48.2 °F67 %30.27 in10.0 miSSW (200°)5.8 mphClear
9:55 PM59.0 °F50.0 °F72 %30.27 in10.0 miSSW (200°)6.9 mphClear
10:15 PM57.2 °F50.0 °F77 %30.28 in10.0 miSouth (190°)5.8 mphClear
10:35 PM57.2 °F50.0 °F77 %30.27 in10.0 miSouth (190°)8.1 mphClear
10:55 PM57.2 °F50.0 °F77 %30.27 in10.0 miSSW (200°)5.8 mphClear
11:15 PM57.2 °F50.0 °F77 %30.28 in10.0 miSSW (200°)4.6 mphClear
11:35 PM55.4 °F50.0 °F82 %30.28 in10.0 miSSW (200°)5.8 mphClear
11:55 PM57.2 °F50.0 °F77 %30.28 in10.0 miSouth (190°)4.6 mphClear
Hourly data recorded from KHEZ, located miles away from St. Joseph, Louisiana







STORIES FROM OUR PARTNERS